Location: Umburanas
(4.5000°S, 37.9667°W)
Time: 01:55:29
(UTC+00:00)

Cosmos 2056 Rocket - Pass Details

Date: 19 November 2019
Orbit: 743 x 800 km, 74.0° (Epoch: 08 December)

Event Time Altitude Azimuth Distance (km) Brightness Sun altitude
Rises 22:05:13 0° 343° (NNW) 3,211 6.7 -23.6°
Reaches altitude 10° 22:07:34 10° 340° (NNW) 2,298 5.9 -24.1°
Maximum altitude 22:12:45 68° 258° (WSW) 835 3.8 -25.3°
Drops below altitude 10° 22:18:04 10° 175° (S) 2,348 6.2 -26.5°
Sets 22:20:30 0° 172° (S) 3,288 7.0 -27.0°
